Simultaneous Nadir Overpasses (SNOs) Predictions

Prediction of SNOs between GOES-17 and TERRA Satellite Orbit:

Table of predicted SNOs for the next 14.0 days since TLE Epoch: 8/30/2024
Index Date Time (GOES-17) GOES-17 Lat,Lon TERRA Lat,Lon Distance(km) Time Diff (sec)
1 08/31/2024 04:42:43 -0.00,-104.68 -0.02,-104.74 7.21 80
2 09/02/2024 04:22:17 -0.00,-104.67 0.91,-100.46 479.59 80
3 09/02/2024 16:42:05 0.00,-104.72 0.12,-105.27 62.74 80
4 09/04/2024 16:26:57 -0.00,-104.72 -0.76,-100.98 424.97 80
5 09/05/2024 04:46:55 -0.00,-104.68 -0.27,-105.83 131.86 80
6 09/07/2024 04:26:27 0.00,-104.68 0.66,-101.54 356.30 80
7 09/07/2024 16:46:15 0.00,-104.72 0.34,-106.36 185.86 80
8 09/09/2024 16:31:05 0.01,-104.72 -0.54,-102.06 302.53 80
9 09/10/2024 04:51:03 -0.01,-104.68 -0.46,-106.91 254.00 80
10 09/12/2024 04:30:32 -0.02,-104.67 0.41,-102.61 234.29 80
11 09/12/2024 16:50:19 0.02,-104.71 0.56,-107.43 308.05 80
